Regional Weather Roundup
Issued by NWS Charleston, SC

Current Version | Previous Version | Graphics & Text | Print | Product List | Glossary On
Versions: 1 2 3 4 5 6 7 8 9 10 11 12 13 14 15 16 17 18 19 20 21 22 23 24 25 26 27 28 29 30 31 32 33 34 35 36 37 38 39 40 41 42 43 44 45 46 47 48 49 50
000
ASUS42 KCHS 111711
RWRCHS

REGIONAL WEATHER ROUNDUP
NATIONAL WEATHER SERVICE CHARLESTON SC
1200 PM EST MON DEC 11 2017

NOTE: "FAIR" INDICATES FEW OR NO CLOUDS BELOW 12,000 FEET WITH NO
SIGNIFICANT WEATHER AND/OR OBSTRUCTIONS TO VISIBILITY.

NOT ALL STATIONS ARE QUALITY CONTROLLED. USE DATA WITH CAUTION...
ESPECIALLY DEWPOINT OBSERVATIONS.

SCZ027-030-031-034>040-042>050-111800-
...SOUTHEAST SOUTH CAROLINA...

CITY           SKY/WX    TMP DP  RH WIND       PRES   REMARKS
N CHARLESTON   SUNNY     51  32  48 NW5       30.16F
WATERFRONT PRK   N/A     50  32  50 VRB3      30.04F
JOHNS ISLAND   FAIR      55  32  41 CALM      30.16F
PINOPOLIS        N/A     43  36  75 CALM      30.12F
MONCKS CORNER  FAIR      48  30  49 CALM      30.17F
SUMMERVILLE    FAIR      50  32  50 CALM      30.19F
BEAUFORT MCAS  SUNNY     53  34  48 W8        30.18F
BEAUFORT ARPT  FAIR      50  32  50 NW6       30.17F
HILTON HEAD IS SUNNY     52  30  43 W7        30.19F
WALTERBORO     SUNNY     50  32  50 NW7       30.18F
ALLENDALE      FAIR      52  32  46 CALM      30.17F

...SOUTHERN MIDLANDS AND PEE DEE...

CITY           SKY/WX    TMP DP  RH WIND       PRES   REMARKS
GEORGETOWN     FAIR      48  32  53 NW3       30.16F
KINGSTREE      FAIR      48  28  46 CALM      30.17F
ORANGEBURG     SUNNY     51  30  44 CALM      30.16F
BARNWELL         N/A     54  32  43 CALM      30.17F
AIKEN          FAIR      50  32  50 W3        30.18F
MANNING        FAIR      50  27  40 MISG      30.16F
COLUMBIA       SUNNY     52  32  46 SW3       30.15F
SUMTER         SUNNY     51  29  42 CALM      30.13F
FLORENCE       SUNNY     49  28  44 CALM      30.15F
MYRTLE BEACH   SUNNY     48  30  49 W3        30.16F
N MYRTLE BEACH SUNNY     50  30  46 SE5       30.14F

$$

GAZ063-065-086>088-099>101-113>116-118-119-134>141-150-111800-
...SOUTHEAST GEORGIA...

CITY           SKY/WX    TMP DP  RH WIND       PRES   REMARKS
SAVANNAH ARPT  SUNNY     56  31  38 NW8       30.19F
HUNTER AAF     SUNNY     56  32  40 W8        30.16F
FORT STEWART   SUNNY     56  31  38 W9        30.17F
STATESBORO     SUNNY     55  28  34 NW6       30.18F
SYLVANIA       SUNNY     53  36  51 W6        30.19F
CLAXTON        FAIR      56  35  45 SW6       30.21F

...CSRA...CENTRAL AND FAR SOUTHEAST GEORGIA...

CITY           SKY/WX    TMP DP  RH WIND       PRES   REMARKS
THOMSON        SUNNY     53  31  43 N7        30.21F
AUGUSTA-BUSH   SUNNY     55  31  39 CALM      30.16F
AUGUSTA-DANIEL SUNNY     53  31  42 CALM      30.16F
SWAINSBORO     FAIR      54  34  47 W6        30.19F
VIDALIA        SUNNY     55  34  44 NW6       30.20F
EASTMAN        FAIR      57  20  23 W7        30.22F
HAZLEHURST     FAIR      58  19  22 W3        30.20F
ALMA           SUNNY     58  32  37 NW8       30.21F
WAYCROSS       SUNNY     58  28  32 W6        30.22F
JESUP          NOT AVBL
BAXLEY         FAIR      54  32  43 W5        30.20F
BRUNSWICK      SUNNY     55  32  41 NW6       30.22F
SAINT SIMONS   SUNNY     55  34  45 W8        30.21F

$$

SCZ027-028-034-036>038-045-046-048>050-GAZ119-141-111800-
...LAKE AND SUPPLEMENTAL COASTAL OBSERVATIONS...

STATION/POSITION TIME  TEMP    WIND        PRES    WAVE   SWELL
                       AIR SEA DIR/SP/G            HT/PER HT/PER/DIR
                 (UTC) (F)     (DEG/KT/KT) (MB)    (FT/S) (FT/S/D)
WINYAH BAY       1545   45     320/  4     1022.0
LAKE MURRAY      1620   47     200/  7/  8 1020.7
ACE BASIN NERRS  1545   48     260/  3     1023.0
FORT PULASKI     1648   51 55  320/ 11/ 13 1022.5F
SAPELO ISLAND    NOT AVBL

$$

ANZ835-935-AMZ111-154-330-350-352-354-370-450-454-472-111800-
...C-MAN AND BUOY OBSERVATIONS...

STATION/POSITION TIME  TEMP    WIND        PRES    WAVE   SWELL
                       AIR SEA DIR/SP/G            HT/PER HT/PER/DIR
                 (UTC) (F)     (DEG/KT/KT) (MB)    (FT/S) (FT/S/D)
BUOY 41004       1700      74  280/ 10/ 14 1020.8
BUOY 41008       1650   52 61  270/ 12/ 14 1022.7F   2/ 3
FOLLY BEACH CMAN 1600   48     300/  4/  6 1023.0F
CAPERS NEARSHORE 1608   44 58  280/  6/ 10 1022.1F
FRIPP NEARSHORE  1608   48 55  280/ 16/ 19 1022.6F


STATION/POSITION TIME  TEMP    WIND        PRES    WAVE   SWELL
                       AIR SEA DIR/SP/G            HT/PER HT/PER/DIR
                 (UTC) (F)     (DEG/KT/KT) (MB)    (FT/S) (FT/S/D)
5E ST. MARYS GA  1630      59                N/A     1/ 9
FRYING PAN BUOY  1650   50 63  290/  8/ 10 1020.2F   3/ 6   3/230/ 6
BUOY 41025       1650   51 75  290/  8/ 14 1019.7F   4/ 5   3/210/ 5
CAPE LOOKOUT NC  1600          300/  6/  7 1021.2F
BUOY 41002       1650   65 76  270/  8/ 14 1020.2F   4/ 8   3/ 50/ 8
BUOY 41010       NOT AVBL
ST AUGUSTINE FL  1700   54 62   10/  4/  5 1024.3F


$$



USA.gov is the U.S. government's official web portal to all federal, state and local government web resources and services.